Skip Page Navigation
NASA JPL Caltech
NASA Logo - Jet Propulsion Laboratory + View the NASA Portal
+ Center for Near-Earth Object Studies
JPL Home Earth Solar System Stars & Galaxies Technology
JPL Solar System Dynamics
BODIES ORBITS EPHEMERIDES TOOLS PHYSICAL DATA DISCOVERY FAQ SITE MAP
JPL Small-Body Database Browser
Search: [ help ]  
150582 (2000 UP69)
Classification: Main-belt Asteroid          SPK-ID: 2150582
Ephemeris | Orbit Diagram | Orbital Elements | Mission Design | Physical Parameters | Discovery Circumstances | Close-Approach Data ]

[ show orbit diagram ]
Orbital Elements at Epoch 2459200.5 (2020-Dec-17.0) TDB
Reference: JPL 17 (heliocentric ecliptic J2000)
 Element Value Uncertainty (1-sigma)   Units 
e .2461130357426988 4.9612e-08  
a 3.077049645944619 2.1754e-08 au
q 2.319747616450192 1.5089e-07 au
i 6.014325176173912 6.3388e-06 deg
node 12.574743219453 4.5765e-05 deg
peri 37.11940457928807 4.7242e-05 deg
M 265.2611490109811 1.1636e-05 deg
tp 2459719.330853244109
(2022-May-19.83085324)
6.6881e-05 TDB
period 1971.515436571301
5.40
2.0907e-05
5.724e-08
d
yr
n .1826006498970572 1.9364e-09 deg/d
Q 3.834351675439045 2.7108e-08 au
  Orbit Determination Parameters
   # obs. used (total)      377  
   data-arc span      6817 days (18.66 yr)  
   first obs. used      2000-09-30  
   last obs. used      2019-05-31  
   planetary ephem.      DE441  
   SB-pert. ephem.      SB441-N16  
   condition code      0  
   norm. resid. RMS      .61503  
   source      ORB  
   producer      Otto Matic  
   solution date      2021-Apr-13 19:19:09  

Additional Information
 Earth MOID = 1.33243 au 
 Jupiter MOID = 1.61156 au 
 T_jup = 3.174 
[ show covariance matrix ]

Ephemeris | Orbit Diagram | Orbital Elements | Mission Design | Physical Parameters | Discovery Circumstances | Close-Approach Data ]

Physical Parameter Table
Parameter Symbol Value Units Sigma Reference Notes
absolute magnitude H 15.4   n/a MPO436760  

150582 (2000 UP69)          Discovered 2000-Oct-25 by LINEAR at Socorro
Reference: 20070303/Numbers.arcLast Updated: 2007-03-07

[ hide close-approach data ]
Close-Approach Data   ...sorted by Date/Time (TDB)
Date/Time (TDB) Time Uncertainty
(days_HH:MM)
Body Nominal Distance (au) Minimum Distance (au) Maximum Distance (au) V-relative (km/s) V-infinity (km/s) JD (TDB) Time Uncertainty (minutes) Semi-major axis (km) Semi-minor axis (km) range-LOV angle (deg) N-sigma BP Orbit Ref. Reference Modified
1912-Jul-18 00:41 00:04 Jupiter 1.67428998857991 1.67428852131373 1.67429145584735 0.978026283989772 n/a 2419601.528496773 3.95560063679681 110.962472557611 35.9301186262721 -52.6192673662788 5704371.65553172 F 17 CATAB v2.0f-lin.ifort 2021-Apr-13 19:19:10 2021-Apr-13 19:19
1922-Feb-19 03:37 00:03 Jupiter 1.87364758269293 1.8736457364077 1.8736494290164 2.16184446065791 1.9415016469359 2423104.650785477 3.32333751715238 481.222243141311 37.6072346803633 88.2123174944772 2159167.63626463 T 17 CATAB v2.0f-lin.ifort 2021-Apr-13 19:19:10 2021-Apr-13 19:19
1971-Aug-24 15:20 00:02 Jupiter 1.63544684192052 1.63544610544545 1.63544757839654 0.903179121408009 n/a 2441188.139205492 1.62895679029331 96.185652522067 26.2646474732702 -73.89418909006 8974601.08388653 F 17 CATAB v2.0f-lin.ifort 2021-Apr-13 19:19:10 2021-Apr-13 19:19
1981-Apr-01 00:44 00:01 Jupiter 1.95222014013558 1.95221926983307 1.95222101043942 2.41987822146161 2.23339596478209 2444695.530249728 1.17086684792194 155.608475937577 27.5533547952235 89.2987323169049 2117599.26412872 T 17 CATAB v2.0f-lin.ifort 2021-Apr-13 19:19:10 2021-Apr-13 19:19
2030-Oct-06 21:47 < 00:01 Jupiter 1.61334024867283 1.61333970537549 1.61334079197094 0.895984481971545 n/a 2462781.407414514 0.738344893816847 107.389525507144 22.8953181296014 -82.0651686528543 10442106.0830303 F 17 CATAB v2.0f-lin.ifort 2021-Apr-13 19:19:10 2021-Apr-13 19:19
2089-Nov-22 19:27 00:03 Jupiter 1.60727426031817 1.60727367003116 1.6072748506059 0.93123009836651 n/a 2484378.310681365 2.94551718257395 127.527929297763 26.5714654211633 -84.1723433968977 9001556.25057377 F 17 CATAB v2.0f-lin.ifort 2021-Apr-13 19:19:10 2021-Apr-13 19:19
2139-Jul-09 16:43 00:05 Jupiter 1.96537371037294 1.96537114995227 1.96537627079014 2.91042995804814 2.75837942320117 2502503.196658391 4.84075176379688 62.3550570759442 50.159639227271 59.9306838790904 389324.157749157 T 17 CATAB v2.0f-lin.ifort 2021-Apr-13 19:19:10 2021-Apr-13 19:19
2149-Jan-09 09:35 00:05 Jupiter 1.61711957632597 1.61711848264872 1.6171206700055 1.00026526012893 n/a 2505974.899607224 5.29618496591887 150.161644477042 39.8416836167614 -75.0941447855503 5880470.92478615 F 17 CATAB v2.0f-lin.ifort 2021-Apr-13 19:19:10 2021-Apr-13 19:19
2198-Aug-22 06:30 00:07 Jupiter 1.89249638764434 1.89249267508425 1.8925001001926 2.46116712540258 2.27204881888043 2524096.770888728 7.45775086505057 95.2014167627454 15.6970399713884 83.8642988657349 328443.412478603 T 17 CATAB v2.0f-lin.ifort 2021-Apr-13 19:19:10 2021-Apr-13 19:19
Ephemeris | Orbit Diagram | Orbital Elements | Mission Design | Physical Parameters | Discovery Circumstances | Close-Approach Data ]
ABOUT SSD CREDITS/AWARDS PRIVACY/COPYRIGHT GLOSSARY LINKS
FirstGov 2021-May-11 02:35 UT
(server date/time)  
NASA Home Page
Site Manager:   Ryan S. Park
Webmaster  Alan B. Chamberlin